Wind_Speed
7 5 5 6 7 6 7 8 9 10 11 12 13 14 14 15 15 14 14 15 14 15 16 19 19 20 20 21 23 23 23 24 25 25 25 25 26 27 27 27 27 28 28 28
5 4 4 5 5 6 7 8 9 9 10 12 13 14 15 16 16 16 16 17 15 15 16 18 19 21 21 23 25 25 24 25 25 25 25 26 26 25 26 26 27 28 28 29
2 2 3 4 5 6 7 8 8 8 10 11 13 14 16 16 17 17 17 17 16 16 17 17 19 21 23 24 24 24 25 25 25 25 26 26 26 25 25 26 26 26 26 27
1 0 2 4 4 3 5 7 8 8 10 12 14 16 16 16 16 16 16 17 18 18 19 19 20 21 22 23 23 23 25 25 25 25 25 25 25 26 26 26 26 25 26 27
1 1 2 2 3 4 5 7 9 10 12 13 13 16 16 17 18 16 17 17 18 19 19 20 21 23 23 24 24 25 25 25 25 25 25 26 26 27 27 26 25 26 26 26
2 3 4 4 4 6 8 10 10 10 12 13 12 14 14 15 15 16 18 18 18 19 19 21 23 24 24 25 26 26 26 25 25 25 25 26 26 27 26 26 26 26 26 26
4 5 6 7 7 7 9 12 12 13 14 14 14 17 16 15 16 17 17 18 18 20 21 21 23 25 25 25 26 26 26 25 25 25 26 26 26 26 26 26 26 25 25 25
6 6 6 7 8 9 10 12 13 15 15 15 16 17 16 16 16 16 17 18 19 20 22 23 24 25 25 25 25 25 25 24 24 24 25 25 25 26 26 26 26 25 25 25
10 9 9 9 10 11 11 13 13 15 17 17 17 16 16 16 16 17 18 19 19 21 23 23 24 24 24 24 23 23 23 24 23 23 23 24 25 25 25 25 24 24 24 23
13 12 11 12 12 13 14 15 16 17 18 19 17 16 17 17 19 19 19 19 21 22 23 23 24 23 22 22 21 22 23 22 22 22 22 23 24 25 24 24 24 23 22 22
15 15 13 14 15 16 17 18 18 19 19 20 20 18 18 20 20 20 21 22 23 23 23 22 22 22 21 20 21 21 20 20 20 21 22 23 24 23 23 23 22 21 20 20
17 17 16 15 16 18 18 19 20 22 21 21 23 22 20 20 21 21 22 22 22 22 21 20 20 20 19 19 19 19 19 19 19 20 21 22 22 22 21 21 20 19 19 19
19 19 19 17 17 18 19 20 22 23 24 24 24 23 22 21 20 20 21 21 21 21 21 20 19 19 19 18 18 18 18 18 19 19 20 20 20 19 19 18 18 17 17 17
21 21 21 21 19 20 20 20 21 23 24 24 23 23 22 22 20 20 20 20 21 20 20 20 18 17 17 17 17 17 18 18 18 18 18 18 18 17 17 17 16 16 15 15
21 22 23 23 23 23 22 21 21 22 23 24 23 23 22 21 19 18 19 19 19 19 19 18 17 17 18 18 17 17 17 17 17 17 16 16 16 16 16 16 15 15 14 15
22 24 24 24 23 24 23 22 22 22 23 23 23 23 22 21 19 20 19 18 19 19 18 17 17 17 17 17 16 16 16 16 15 15 15 14 14 15 15 14 14 14 13 13
23 24 25 24 24 25 23 21 22 22 23 22 22 21 20 19 18 18 19 18 18 18 18 18 18 18 16 16 15 15 15 15 15 14 14 14 13 14 14 13 13 13 12 12
23 23 24 24 24 24 20 20 21 22 21 20 19 18 17 17 17 17 17 17 16 16 17 17 17 16 16 15 14 14 14 14 14 14 13 13 13 13 12 12 12 12 12 12
22 23 23 23 25 24 20 19 20 21 19 19 18 17 16 17 16 16 16 16 16 15 16 16 15 14 14 13 12 13 13 13 13 13 12 12 12 12 12 12 12 12 12 12
20 22 23 24 24 24 20 19 19 19 18 17 17 16 15 15 15 15 15 15 15 14 14 13 13 13 13 12 12 12 12 12 12 12 12 12 11 11 12 12 12 12 11 11
21 21 22 23 23 23 21 19 18 18 18 16 15 14 13 14 14 14 15 15 14 14 12 11 12 11 11 11 11 11 11 11 11 11 11 11 11 11 11 12 11 11 11 11
20 21 21 21 22 21 19 18 18 18 17 16 14 14 13 13 14 13 13 13 14 13 11 10 10 10 10 10 10 10 10 10 10 10 10 10 10 10 11 11 11 11 11 11
19 19 20 21 20 19 18 17 17 17 17 16 15 13 12 12 13 12 12 12 12 12 11 10 9 9 9 9 9 10 10 9 9 9 9 9 9 9 10 10 10 10 10 10
19 19 19 19 19 18 18 18 18 18 17 16 14 13 12 12 12 11 11 11 11 10 9 10 9 8 8 8 9 9 9 8 7 7 7 8 8 8 9 10 10 10 10 11
19 18 18 17 16 17 17 18 19 18 16 15 14 14 12 11 11 11 10 10 9 8 7 7 8 8 8 8 8 7 7 6 6 6 7 7 7 8 9 9 10 10 10 11
18 19 20 19 18 19 17 17 18 19 17 15 13 12 11 11 10 10 10 9 7 6 6 5 5 6 6 6 5 5 5 5 5 5 6 7 7 8 9 9 10 11 11 11
Wind_Direction
135 143 159 182 197 208 221 230 236 236 238 246 252 256 258 267 275 278 287 291 289 291 290 291 292 293 297 294 296 297 297 297 297 297 297 296 295 296 297 296 295 294 294 293
135 133 161 191 205 220 232 234 237 241 249 253 256 258 263 269 275 282 287 291 293 290 288 292 292 292 294 295 295 295 293 294 296 296 296 296 295 295 296 296 296 296 295 294
138 150 189 205 212 229 231 242 249 255 249 256 264 262 267 271 277 279 283 289 289 286 289 292 294 293 293 295 295 294 293 294 294 296 297 297 296 296 297 297 298 297 296 294
135 267 237 223 221 234 250 256 265 268 269 272 273 269 269 270 275 278 280 287 290 290 292 291 294 293 294 296 295 294 295 294 293 295 297 297 296 297 298 299 300 298 296 294
205 243 267 253 237 248 271 283 278 272 273 277 279 280 276 274 278 284 289 290 294 296 296 299 300 300 298 298 297 296 295 293 293 293 295 296 297 298 299 301 301 298 296 295
269 260 273 283 276 273 279 280 278 274 277 281 286 285 286 292 295 293 294 296 301 303 304 303 304 303 301 301 299 297 295 292 292 292 294 294 296 299 299 301 302 300 299 298
275 279 265 264 263 273 283 284 286 282 280 279 284 286 292 291 295 298 296 298 303 306 304 304 306 306 304 301 300 298 295 294 293 294 295 295 296 299 300 301 302 301 301 302
277 267 261 260 268 279 282 285 292 293 291 289 288 291 294 294 297 304 307 305 306 307 307 305 306 306 305 303 302 301 298 296 295 296 296 296 298 300 302 302 301 300 300 301
289 279 272 269 275 277 278 285 290 292 295 299 299 300 299 302 301 300 304 305 306 309 308 307 307 306 305 305 304 302 299 296 296 296 296 298 300 302 302 301 300 300 301 301
286 284 276 271 270 273 277 282 284 287 289 293 297 300 303 305 305 300 301 305 310 312 312 309 309 308 307 305 304 303 302 300 298 300 301 302 304 304 303 302 299 299 301 302
284 284 282 275 272 272 273 277 279 283 287 289 291 295 302 306 305 304 303 304 308 310 313 312 313 312 310 309 308 305 304 303 303 304 304 304 305 305 306 305 302 301 301 302
279 279 278 272 270 271 272 275 280 283 285 286 288 294 301 303 306 304 303 305 309 311 313 311 312 313 312 310 310 308 306 304 305 306 308 310 310 309 308 308 305 303 304 306
277 276 277 274 269 273 275 277 277 279 282 284 289 294 295 298 301 303 304 306 309 313 314 314 311 310 310 310 310 308 308 308 307 310 313 315 316 313 312 311 310 309 310 311
276 275 276 278 277 276 278 279 277 277 281 284 289 292 295 300 298 297 299 303 308 311 313 313 311 311 308 308 308 306 308 310 311 314 317 319 320 318 317 316 315 315 315 313
275 275 273 274 276 278 280 282 282 280 281 284 287 289 293 296 296 297 299 301 305 308 309 310 312 313 310 308 306 306 308 310 312 316 320 321 322 322 321 320 319 319 317 315
276 274 273 272 273 276 278 282 284 283 282 281 282 285 287 290 294 298 298 297 301 304 305 307 310 309 309 308 306 307 309 311 313 319 322 323 324 325 327 325 324 323 321 321
277 276 275 274 273 274 276 280 280 281 281 282 282 285 285 287 292 296 298 297 298 300 301 304 305 306 306 306 306 307 311 314 318 321 322 323 326 330 332 331 330 332 330 327
278 276 275 277 276 276 281 278 277 277 279 280 279 284 285 287 291 294 295 295 296 297 301 304 307 309 308 307 305 306 310 312 315 318 321 323 326 330 332 335 336 336 335 333
274 274 275 277 278 278 280 280 277 276 277 279 279 282 283 286 292 295 294 295 297 298 300 303 307 310 312 311 309 309 312 313 314 316 320 323 324 327 330 334 336 335 335 336
273 274 275 275 277 278 280 278 279 279 280 279 277 281 282 283 289 294 294 296 299 303 302 302 304 309 312 312 311 313 316 317 317 318 320 323 325 327 329 332 333 335 336 340
275 273 274 273 274 277 279 278 278 277 280 277 276 280 283 284 289 294 297 300 301 303 305 302 304 309 314 314 313 312 315 318 321 324 325 327 329 329 330 333 335 336 336 338
276 277 274 272 273 274 274 271 269 269 272 272 274 279 283 285 288 292 296 300 303 304 304 303 304 307 313 318 317 316 319 320 322 326 330 333 335 336 336 337 337 340 341 340
275 275 274 270 271 270 268 266 264 266 266 268 269 271 272 277 284 287 292 300 304 306 305 309 315 316 319 320 321 323 323 324 326 327 330 335 340 343 345 346 346 349 350 350
273 271 270 271 271 266 262 259 259 259 261 261 261 263 266 273 279 284 290 302 305 306 312 312 313 321 325 322 323 323 323 326 330 335 338 342 342 346 348 352 355 356 357 356
274 271 266 267 267 262 261 258 254 255 259 257 259 262 263 267 273 280 285 296 301 303 311 313 310 312 317 317 319 324 327 330 331 337 345 349 349 350 351 355 357 357 356 355
272 267 265 265 267 265 261 257 253 252 254 252 254 260 260 265 270 276 283 292 294 296 300 306 314 317 320 327 334 334 337 341 342 344 350 352 353 351 351 353 354 355 356 356
Height
5853 5856 5856 5858 5859 5860 5860 5861 5861 5862 5862 5862 5862 5862 5863 5863 5863 5863 5864 5864 5863 5863 5862 5860 5858 5857 5855 5854 5852 5851 5849 5846 5844 5842 5839 5837 5834 5831 5829 5826 5823 5820 5818 5815
5854 5855 5856 5857 5857 5858 5859 5859 5859 5860 5859 5860 5859 5860 5860 5860 5860 5859 5859 5859 5858 5858 5857 5856 5854 5853 5851 5849 5847 5845 5843 5841 5838 5835 5833 5831 5828 5825 5822 5819 5816 5813 5810 5807
5854 5855 5855 5855 5856 5856 5857 5858 5858 5858 5858 5858 5857 5857 5857 5857 5856 5856 5855 5855 5855 5854 5853 5852 5850 5848 5847 5844 5842 5839 5837 5834 5832 5829 5827 5825 5822 5819 5816 5813 5809 5806 5803 5800
5853 5853 5854 5854 5854 5854 5855 5856 5856 5856 5856 5856 5856 5854 5854 5854 5853 5852 5851 5851 5850 5850 5849 5847 5845 5843 5840 5837 5835 5833 5831 5829 5826 5824 5822 5819 5816 5813 5810 5806 5803 5799 5796 5793
5854 5853 5853 5853 5853 5853 5854 5853 5853 5853 5853 5853 5852 5851 5851 5850 5849 5848 5847 5846 5846 5844 5844 5842 5840 5837 5835 5832 5830 5828 5825 5823 5821 5818 5816 5813 5810 5807 5803 5799 5796 5792 5789 5786
5853 5853 5853 5853 5853 5852 5852 5852 5851 5851 5850 5850 5849 5848 5847 5846 5846 5845 5844 5843 5841 5840 5839 5837 5835 5831 5829 5827 5824 5821 5819 5816 5814 5812 5810 5807 5804 5800 5797 5793 5789 5786 5783 5780
5852 5852 5851 5851 5851 5851 5850 5850 5849 5848 5847 5847 5846 5844 5844 5843 5842 5841 5840 5838 5837 5835 5833 5831 5829 5826 5823 5820 5817 5814 5811 5809 5807 5805 5803 5800 5797 5793 5790 5786 5783 5780 5777 5773
5849 5850 5850 5849 5849 5848 5848 5847 5847 5845 5844 5843 5842 5840 5841 5839 5838 5836 5835 5833 5832 5830 5827 5825 5823 5820 5817 5814 5811 5807 5805 5803 5800 5798 5796 5793 5790 5787 5783 5780 5777 5774 5770 5767
5847 5847 5847 5847 5846 5846 5845 5844 5843 5842 5840 5839 5838 5837 5836 5835 5833 5832 5830 5829 5827 5825 5822 5819 5816 5814 5811 5807 5805 5802 5799 5797 5794 5791 5789 5786 5783 5780 5777 5773 5770 5767 5763 5760
5844 5844 5845 5845 5844 5844 5843 5842 5841 5839 5837 5835 5835 5834 5833 5831 5829 5828 5826 5825 5822 5820 5817 5814 5811 5808 5805 5802 5799 5796 5794 5791 5788 5786 5783 5780 5776 5773 5769 5766 5763 5760 5758 5754
5842 5841 5842 5841 5840 5840 5840 5839 5837 5835 5834 5831 5830 5832 5830 5827 5825 5823 5822 5820 5817 5815 5812 5809 5806 5803 5801 5797 5794 5792 5789 5786 5783 5781 5778 5774 5770 5766 5763 5760 5757 5754 5752 5749
5838 5838 5837 5838 5837 5836 5836 5834 5833 5831 5830 5828 5826 5828 5825 5823 5820 5818 5817 5814 5812 5810 5807 5804 5801 5799 5796 5793 5790 5787 5784 5781 5779 5776 5772 5768 5764 5761 5758 5755 5752 5749 5746 5744
5833 5833 5832 5833 5835 5833 5831 5830 5828 5827 5825 5823 5821 5823 5820 5818 5816 5813 5812 5810 5807 5805 5802 5799 5796 5794 5791 5788 5786 5783 5780 5777 5774 5771 5767 5763 5760 5757 5754 5751 5748 5745 5742 5740
5828 5827 5828 5827 5826 5826 5826 5825 5823 5822 5819 5818 5817 5815 5814 5812 5810 5809 5807 5805 5803 5801 5798 5795 5792 5789 5787 5784 5781 5779 5776 5773 5770 5767 5763 5760 5757 5753 5751 5748 5745 5742 5739 5736
5821 5821 5820 5820 5820 5819 5818 5818 5817 5816 5814 5812 5811 5810 5809 5807 5806 5804 5802 5800 5798 5796 5793 5791 5788 5785 5783 5780 5777 5775 5772 5770 5766 5763 5760 5757 5754 5751 5748 5745 5742 5739 5736 5733
5814 5813 5813 5813 5813 5812 5812 5812 5810 5809 5808 5807 5806 5804 5803 5801 5800 5798 5797 5795 5793 5791 5789 5787 5784 5781 5779 5776 5774 5771 5769 5766 5763 5760 5757 5754 5752 5749 5746 5743 5740 5737 5734 5731
5807 5806 5805 5805 5806 5805 5806 5806 5804 5802 5801 5800 5799 5799 5797 5796 5794 5793 5792 5790 5788 5786 5784 5783 5780 5777 5775 5772 5770 5768 5765 5763 5760 5758 5755 5752 5750 5747 5744 5741 5738 5735 5732 5729
5799 5798 5797 5797 5798 5797 5801 5799 5797 5795 5795 5793 5792 5792 5791 5790 5789 5788 5787 5785 5783 5781 5779 5778 5776 5773 5771 5768 5766 5764 5762 5760 5758 5755 5753 5750 5748 5746 5743 5740 5737 5734 5731 5728
5792 5791 5790 5790 5789 5790 5792 5791 5790 5789 5788 5787 5787 5786 5786 5784 5784 5783 5782 5780 5778 5776 5774 5773 5771 5769 5767 5765 5763 5761 5759 5757 5755 5753 5751 5748 5746 5744 5741 5738 5735 5733 5730 5727
5785 5784 5783 5783 5782 5782 5786 5785 5783 5783 5782 5782 5781 5781 5780 5780 5780 5779 5777 5775 5774 5772 5770 5768 5767 5765 5763 5762 5760 5758 5757 5755 5752 5750 5748 5746 5744 5742 5739 5737 5734 5731 5728 5726
5777 5777 5776 5776 5775 5775 5777 5777 5777 5777 5777 5776 5776 5775 5775 5775 5774 5774 5773 5771 5769 5768 5766 5764 5763 5762 5760 5759 5757 5756 5754 5752 5750 5748 5746 5744 5742 5740 5738 5735 5733 5730 5727 5725
5769 5769 5769 5768 5768 5771 5770 5769 5770 5769 5768 5769 5770 5770 5769 5769 5769 5769 5768 5767 5766 5764 5762 5761 5760 5758 5757 5756 5755 5753 5751 5750 5748 5746 5745 5743 5741 5739 5736 5734 5731 5729 5726 5723
5762 5762 5761 5762 5763 5763 5762 5762 5762 5762 5762 5763 5763 5764 5764 5765 5765 5765 5764 5763 5762 5761 5759 5758 5757 5755 5755 5753 5752 5751 5749 5748 5746 5745 5743 5741 5740 5738 5735 5733 5730 5728 5725 5722
5756 5755 5754 5754 5755 5756 5755 5755 5755 5755 5755 5756 5758 5759 5760 5760 5761 5761 5760 5760 5759 5757 5757 5755 5754 5753 5752 5751 5750 5749 5747 5746 5744 5743 5742 5740 5739 5737 5735 5732 5730 5727 5725 5722
5749 5748 5747 5747 5749 5748 5749 5749 5749 5749 5750 5751 5752 5754 5755 5755 5756 5757 5756 5756 5755 5754 5754 5753 5752 5751 5750 5749 5748 5747 5746 5744 5743 5742 5741 5739 5738 5736 5734 5732 5729 5727 5724 5721
5742 5741 5740 5740 5741 5740 5742 5743 5743 5743 5744 5746 5747 5749 5750 5751 5751 5752 5752 5753 5752 5752 5751 5751 5750 5750 5748 5747 5746 5745 5744 5743 5742 5741 5740 5739 5737 5735 5733 5731 5729 5726 5724 5721